Probability
26 29 23 29 39 52 61 65 68 74 71 71 61 65 58 55 58 58 58 58 58 52 55 35 65 52 58 58 52 52 55 52 48 35 32 29 23 32 35 39 35 26 26
26 32 29 32 39 61 68 71 74 71 71 74 74 74 71 61 52 52 58 58 58 48 35 65 48 55 68 65 58 55 42 39 39 42 35 23 26 35 19 29 32 32 29
23 29 35 39 39 52 68 65 74 77 77 84 81 68 74 61 42 52 52 45 52 45 48 48 45 55 45 45 55 52 55 45 42 42 35 26 26 19 16 19 26 35 42
26 29 35 48 48 48 68 74 84 84 84 87 81 77 81 61 58 61 58 52 58 58 48 52 48 52 48 52 45 42 48 48 45 39 42 32 32 16 19 26 26 29 39
32 35 42 55 55 55 61 84 87 84 87 87 90 90 68 68 58 55 58 58 55 52 48 55 58 58 52 52 55 52 48 55 48 35 32 32 39 23 26 29 32 26 23
35 42 42 52 55 58 68 71 87 87 87 87 84 77 74 74 71 65 61 52 48 61 58 58 58 52 48 55 61 52 55 55 45 42 29 32 26 32 32 35 26 29 29
32 42 48 42 55 65 65 68 81 81 87 84 81 74 74 71 71 65 61 55 39 48 48 48 48 48 52 52 48 48 48 45 45 48 48 45 45 42 35 35 32 32 23
42 39 42 42 55 58 68 71 71 77 81 77 71 68 68 61 58 58 48 35 29 32 45 45 48 45 45 42 45 39 42 39 42 42 52 45 42 29 35 35 42 29 23
39 39 32 48 48 55 65 68 71 74 71 65 65 68 65 61 58 58 52 32 42 32 45 42 42 45 45 42 42 39 42 39 39 39 48 48 45 32 29 32 35 35 26
29 39 32 45 42 55 68 71 71 74 68 65 58 55 58 55 55 52 52 45 45 45 45 39 39 39 42 42 39 39 42 42 42 48 48 48 39 42 35 32 39 32 29
29 39 39 42 39 45 55 68 65 68 61 61 58 58 55 55 55 48 48 48 48 52 45 39 42 35 39 35 39 32 39 42 42 42 42 45 48 42 35 35 32 35 35
32 35 35 42 39 42 45 61 55 61 61 61 58 58 55 55 52 52 55 52 48 48 42 39 39 39 39 39 35 35 29 35 42 42 42 42 42 45 45 48 45 39 39
32 39 42 39 48 48 52 52 52 52 58 61 58 55 55 48 52 48 48 48 45 45 39 39 39 39 39 39 35 35 32 32 32 35 35 35 35 39 35 39 29 32 29
42 45 39 55 55 61 58 58 55 52 48 52 52 52 48 42 45 45 48 45 42 45 39 39 39 39 35 32 35 35 32 29 32 32 29 35 35 35 35 35 35 32 32
45 42 42 55 61 61 58 55 55 48 45 48 52 52 52 45 42 45 45 45 42 35 39 39 39 39 35 29 32 32 29 32 32 29 29 29 26 29 29 23 29 29 26
32 39 45 52 58 52 55 55 52 45 48 52 48 52 52 48 48 45 45 42 39 39 39 39 35 32 23 13 10 23 32 29 29 29 29 29 19 13 10 10 10 19 26
35 39 42 58 58 55 55 55 58 48 48 52 48 48 52 45 45 45 48 42 35 35 35 35 35 26 26 13 0 3 23 26 26 29 29 23 16 19 26 13 6 10 6
39 45 48 52 58 55 48 48 48 48 48 45 45 45 39 42 45 42 42 42 42 39 39 35 29 26 23 13 0 3 10 23 23 23 29 26 29 13 19 23 16 16 13
48 48 48 45 52 48 52 52 52 42 42 42 39 39 39 39 42 42 35 39 45 39 35 29 32 29 29 13 0 0 16 23 23 26 23 26 26 16 6 19 19 19 19
48 48 55 48 52 52 55 52 45 45 45 42 35 35 39 48 39 39 32 29 35 32 26 29 29 29 29 13 0 0 13 16 23 23 23 13 10 10 3 19 19 19 16
48 52 52 52 55 48 52 55 52 39 42 42 42 45 45 45 42 39 32 26 26 23 23 19 19 19 23 10 0 0 13 19 19 16 19 23 3 0 0 6 16 16 6
48 48 52 52 52 45 45 48 48 42 39 42 42 52 48 39 29 42 32 26 26 26 26 23 23 16 13 10 3 0 0 6 10 10 13 13 3 0 0 3 0 0 0
48 42 39 42 42 42 42 42 45 45 39 39 48 52 45 39 39 35 32 29 26 23 19 19 19 16 16 13 3 0 0 0 6 10 6 3 0 0 0 0 0 0 0
39 39 32 35 39 35 39 39 42 48 45 48 42 42 39 39 39 32 29 29 23 23 23 19 19 13 16 13 10 3 0 0 0 3 3 0 0 0 0 0 0 0 0
35 39 39 29 35 35 35 35 42 45 39 42 42 39 35 35 32 26 26 26 29 23 19 19 19 16 16 10 3 3 6 3 3 3 6 10 10 3 3 3 0 0 0
29 32 35 29 32 29 32 35 42 42 35 42 39 35 32 32 23 16 13 3 10 6 6 10 10 6 6 3 3 3 3 3 3 3 6 6 10 10 6 6 3 3 0
Height
5919 5918 5918 5917 5917 5916 5915 5915 5914 5913 5913 5912 5911 5911 5910 5909 5909 5908 5907 5907 5906 5905 5905 5905 5904 5904 5903 5903 5902 5902 5902 5901 5900 5900 5899 5899 5898 5898 5897 5896 5895 5894 5894
5919 5918 5917 5917 5916 5916 5915 5915 5914 5913 5913 5912 5911 5910 5910 5909 5908 5907 5906 5906 5905 5904 5904 5904 5903 5903 5902 5902 5901 5901 5900 5900 5899 5898 5898 5897 5897 5896 5895 5894 5893 5892 5891
5918 5917 5917 5916 5916 5915 5915 5914 5914 5913 5912 5911 5911 5910 5909 5908 5907 5906 5905 5905 5904 5903 5903 5902 5902 5901 5901 5900 5900 5899 5898 5898 5897 5896 5896 5895 5895 5894 5893 5892 5891 5890 5888
5916 5916 5916 5915 5915 5915 5914 5913 5913 5912 5912 5911 5910 5909 5908 5907 5906 5905 5904 5903 5902 5902 5901 5901 5900 5900 5899 5899 5898 5897 5896 5896 5895 5894 5893 5893 5892 5891 5890 5889 5888 5887 5886
5915 5914 5914 5914 5914 5914 5913 5912 5912 5911 5911 5910 5909 5908 5907 5906 5905 5904 5903 5902 5901 5900 5900 5899 5899 5898 5897 5896 5896 5895 5894 5893 5892 5891 5890 5889 5888 5887 5886 5885 5884 5883 5882
5913 5913 5912 5912 5912 5912 5911 5911 5910 5910 5909 5908 5907 5906 5905 5904 5904 5902 5901 5900 5899 5898 5898 5897 5896 5895 5895 5894 5893 5892 5891 5890 5889 5888 5887 5886 5885 5884 5883 5881 5880 5879 5878
5910 5910 5910 5910 5910 5909 5909 5909 5908 5908 5907 5906 5905 5904 5904 5903 5902 5901 5900 5898 5897 5896 5895 5894 5893 5892 5891 5890 5889 5888 5888 5887 5886 5885 5883 5882 5881 5880 5879 5877 5876 5875 5874
5907 5907 5907 5907 5907 5907 5906 5906 5906 5905 5904 5904 5903 5902 5901 5900 5899 5898 5897 5896 5895 5893 5892 5891 5890 5889 5888 5887 5886 5885 5884 5883 5882 5881 5880 5878 5877 5876 5874 5873 5871 5870 5869
5903 5904 5904 5904 5904 5904 5904 5903 5903 5902 5902 5901 5900 5899 5898 5897 5896 5896 5894 5893 5892 5890 5889 5887 5886 5885 5884 5883 5882 5880 5879 5879 5878 5877 5875 5874 5872 5871 5870 5868 5867 5865 5864
5899 5899 5900 5900 5900 5900 5900 5900 5900 5899 5899 5898 5897 5896 5895 5894 5893 5892 5891 5890 5888 5887 5885 5884 5882 5881 5880 5878 5877 5876 5875 5874 5873 5872 5870 5869 5868 5866 5864 5863 5861 5860 5858
5895 5895 5895 5896 5896 5896 5896 5896 5896 5895 5895 5894 5893 5892 5891 5890 5889 5888 5887 5885 5884 5883 5881 5879 5878 5876 5875 5874 5873 5871 5870 5869 5868 5866 5865 5864 5862 5861 5859 5858 5856 5854 5853
5891 5891 5891 5891 5891 5892 5892 5892 5891 5891 5890 5890 5889 5888 5887 5886 5885 5883 5882 5881 5880 5878 5876 5875 5873 5872 5870 5869 5867 5866 5865 5863 5862 5861 5859 5858 5857 5855 5854 5852 5850 5849 5847
5886 5886 5886 5886 5887 5887 5887 5887 5886 5886 5885 5885 5884 5883 5882 5881 5880 5879 5877 5876 5875 5873 5872 5870 5868 5866 5865 5863 5862 5860 5859 5857 5856 5854 5853 5852 5851 5849 5847 5846 5844 5843 5841
5881 5881 5881 5882 5882 5882 5882 5882 5881 5881 5880 5880 5879 5878 5877 5876 5875 5874 5872 5871 5869 5868 5866 5864 5863 5861 5859 5857 5856 5854 5853 5851 5849 5848 5846 5845 5844 5842 5841 5840 5838 5836 5835
5876 5876 5877 5877 5877 5877 5877 5877 5876 5876 5875 5875 5874 5873 5872 5871 5870 5868 5867 5866 5864 5862 5861 5859 5857 5855 5853 5851 5849 5848 5846 5845 5843 5841 5839 5838 5837 5835 5834 5832 5831 5829 5828
5871 5871 5871 5871 5872 5872 5872 5872 5871 5871 5870 5869 5868 5867 5866 5865 5864 5863 5861 5860 5858 5856 5855 5852 5850 5848 5847 5845 5843 5841 5839 5837 5836 5834 5832 5831 5829 5828 5827 5825 5823 5822 5820
5864 5865 5865 5865 5866 5866 5866 5866 5866 5865 5865 5864 5863 5862 5861 5860 5858 5857 5855 5854 5852 5850 5848 5846 5844 5842 5840 5838 5836 5834 5832 5830 5828 5826 5824 5823 5821 5820 5819 5817 5816 5814 5812
5858 5858 5859 5859 5860 5860 5860 5860 5859 5859 5859 5858 5857 5856 5855 5853 5852 5851 5849 5847 5846 5844 5842 5840 5838 5836 5834 5832 5829 5827 5825 5823 5820 5818 5817 5815 5813 5812 5810 5809 5807 5806 5804
5851 5852 5852 5853 5853 5853 5853 5853 5853 5853 5852 5852 5851 5850 5848 5847 5846 5845 5843 5841 5840 5837 5835 5833 5831 5829 5828 5825 5823 5820 5818 5816 5813 5811 5809 5807 5806 5804 5802 5800 5799 5798 5796
5843 5844 5845 5846 5846 5847 5847 5847 5847 5846 5846 5845 5844 5843 5842 5841 5840 5838 5837 5835 5833 5831 5829 5827 5825 5823 5821 5819 5816 5813 5811 5809 5807 5804 5802 5800 5798 5796 5794 5792 5791 5789 5788
5835 5837 5838 5839 5839 5840 5840 5840 5840 5839 5839 5838 5838 5837 5836 5835 5833 5832 5830 5829 5826 5825 5823 5820 5818 5816 5814 5811 5809 5806 5804 5802 5799 5797 5795 5793 5790 5788 5786 5784 5783 5782 5780
5828 5829 5830 5831 5832 5832 5832 5833 5832 5832 5832 5832 5831 5830 5829 5828 5827 5826 5824 5822 5820 5818 5816 5814 5811 5809 5806 5803 5801 5799 5797 5795 5793 5790 5788 5786 5783 5781 5779 5777 5775 5774 5772
5820 5821 5822 5824 5824 5825 5825 5825 5825 5825 5825 5825 5824 5824 5823 5822 5820 5819 5817 5815 5813 5811 5809 5806 5804 5801 5798 5796 5793 5791 5790 5787 5785 5783 5781 5779 5776 5774 5772 5770 5768 5767 5765
5812 5814 5815 5816 5817 5817 5818 5818 5818 5818 5818 5817 5817 5816 5816 5814 5813 5812 5810 5808 5806 5804 5801 5798 5796 5793 5791 5788 5786 5784 5782 5780 5777 5775 5773 5771 5769 5767 5765 5763 5761 5759 5758
5804 5805 5806 5808 5808 5809 5810 5810 5810 5810 5810 5810 5810 5809 5808 5807 5806 5805 5803 5801 5799 5797 5794 5791 5788 5786 5784 5781 5779 5776 5775 5773 5770 5768 5766 5764 5762 5760 5758 5756 5754 5752 5750
5795 5796 5798 5799 5800 5801 5801 5802 5802 5802 5802 5802 5802 5801 5800 5799 5798 5797 5795 5793 5792 5789 5787 5784 5781 5779 5776 5773 5771 5769 5767 5765 5763 5761 5759 5757 5755 5753 5751 5748 5747 5745 5743
Wind_Speed
2 2 2 2 2 2 1 1 1 1 1 2 2 2 2 2 2 2 3 3 2 3 3 3 3 3 3 4 4 4 4 4 5 5 6 6 6 7 7 8 8 8 8
4 4 4 3 2 2 2 2 1 1 1 2 2 2 2 3 3 4 3 4 4 4 4 4 4 5 5 5 5 6 6 6 6 6 7 7 8 8 8 8 9 9 9
6 6 5 4 4 3 3 3 3 2 2 3 3 3 3 3 4 4 4 4 4 5 5 5 5 5 6 6 7 7 7 7 7 8 8 9 9 10 10 10 11 12 12
7 6 6 6 5 4 4 4 4 4 4 4 4 4 4 5 5 5 5 5 5 5 5 6 6 6 7 7 8 8 8 9 9 9 10 10 11 11 12 12 13 14 14
9 8 8 8 7 7 6 5 5 5 5 6 6 6 6 6 6 6 6 6 6 6 6 7 7 7 8 8 9 9 10 11 11 11 12 12 13 13 14 14 14 15 15
10 10 10 9 9 9 9 8 8 8 7 7 7 7 7 7 7 7 7 7 7 7 7 8 9 9 10 10 10 11 11 12 12 13 14 14 14 15 15 16 16 16 16
12 12 12 11 11 11 11 11 10 9 9 9 9 9 9 9 8 8 8 8 9 9 9 10 10 11 11 12 13 13 13 14 14 14 15 15 16 16 16 17 17 18 18
13 13 13 14 14 14 14 13 12 11 11 11 10 10 10 10 10 10 10 10 10 10 11 12 12 13 13 14 14 14 14 14 15 15 16 17 17 17 18 18 18 19 19
14 14 15 15 15 15 15 15 14 13 13 13 13 12 12 12 12 12 12 11 12 12 12 13 13 14 15 15 15 15 16 16 16 17 17 17 18 18 18 19 19 20 20
14 15 15 15 16 16 15 15 15 15 14 15 15 14 14 14 14 14 14 14 14 14 14 14 15 15 16 16 17 16 17 18 19 19 18 18 18 19 19 19 19 20 20
15 15 16 16 16 17 16 16 17 16 16 16 16 16 16 16 16 16 16 16 16 16 16 16 16 17 17 17 18 18 18 19 20 20 20 20 19 20 20 20 20 21 21
16 16 18 18 18 18 18 17 17 18 17 17 18 18 18 18 17 17 17 17 17 18 18 18 18 19 19 19 20 20 21 21 21 22 22 22 22 22 22 22 22 22 22
17 18 18 19 19 18 18 18 18 18 18 18 18 19 19 19 19 18 19 19 19 19 20 20 19 20 21 22 22 22 22 22 22 23 23 23 24 24 24 24 24 24 24
18 18 18 18 18 18 18 18 18 18 18 19 19 19 19 19 19 20 20 20 20 20 21 21 21 22 22 23 23 24 24 24 24 24 24 25 25 26 26 26 25 26 26
20 19 18 18 19 19 19 19 19 19 19 19 20 20 19 19 20 21 22 22 22 22 22 23 23 23 23 23 23 24 25 25 25 26 26 27 27 27 27 27 28 27 27
22 20 20 21 21 21 21 21 21 20 20 20 20 20 19 20 21 22 22 22 22 23 24 24 24 24 23 23 24 25 26 26 27 27 27 27 27 28 28 27 28 28 27
23 22 22 22 22 22 22 22 22 21 21 21 21 20 20 21 22 23 23 22 23 23 24 23 23 23 24 24 25 26 25 26 27 27 27 26 27 28 28 29 29 29 29
24 23 23 22 23 22 22 22 22 23 23 23 22 21 21 21 22 23 23 22 23 23 23 23 23 24 24 25 26 26 26 26 26 26 27 27 28 28 29 29 29 30 30
25 25 25 24 23 23 23 23 23 23 24 24 23 23 22 22 22 23 23 24 24 24 24 24 24 25 25 25 25 26 26 26 27 27 27 27 28 28 29 29 30 30 30
26 26 26 26 25 25 24 24 24 24 24 24 24 23 23 23 23 23 24 25 25 25 25 26 26 26 26 26 26 26 26 26 26 26 26 26 27 27 28 28 29 29 29
26 26 27 26 25 25 25 24 24 24 24 23 23 22 23 24 23 23 24 24 25 25 26 26 26 27 27 26 26 26 26 26 26 26 26 26 26 26 26 27 28 28 27
27 27 27 27 27 26 26 26 25 24 24 24 24 23 23 23 23 24 24 24 24 25 26 26 26 27 27 27 27 27 26 26 26 26 26 26 26 25 26 26 25 26 26
28 28 28 28 28 28 27 26 26 26 25 26 25 25 24 24 24 25 25 24 25 26 26 27 27 27 27 27 27 27 27 27 26 26 26 26 25 25 25 25 25 25 25
29 29 29 29 29 28 28 27 27 27 27 26 25 26 26 25 25 25 25 25 26 26 27 27 27 27 26 27 27 27 27 26 26 26 25 25 25 25 25 25 25 25 25
30 30 30 30 30 29 29 29 29 29 28 28 27 26 26 26 26 26 25 25 26 27 27 26 26 26 27 27 27 26 26 26 26 25 25 26 26 26 26 25 25 25 25
31 31 31 31 30 30 30 30 30 30 29 29 28 27 26 27 26 26 26 25 26 26 26 26 26 27 27 27 27 26 26 26 26 25 25 25 25 26 26 26 26 26 26
Wind_Direction
316 307 317 338 353 5 10 24 31 39 35 28 31 37 30 12 354 333 324 317 314 306 303 310 309 300 292 285 283 285 287 288 283 280 277 275 282 289 285 283 284 285 285
290 286 282 291 314 316 305 286 306 309 315 326 334 348 353 348 342 333 322 315 312 303 297 299 299 298 292 286 286 288 286 284 282 281 280 281 284 289 290 288 289 290 289
275 277 274 274 285 298 294 277 276 282 283 294 304 314 318 323 326 329 327 320 312 304 295 294 293 292 289 288 287 290 287 281 283 287 286 286 287 286 286 288 289 290 288
272 270 268 266 272 276 286 286 281 289 292 296 302 306 308 313 318 321 322 323 318 307 296 290 289 290 291 290 288 287 284 282 282 286 289 287 288 287 287 289 289 289 289
263 262 266 268 270 272 276 276 276 283 295 299 300 303 303 306 310 309 308 310 309 306 300 295 293 293 294 293 291 288 286 284 283 285 288 288 289 288 288 288 289 288 287
260 261 265 269 271 272 272 271 273 273 278 286 291 296 299 302 306 305 304 307 308 306 303 303 302 297 295 296 293 290 288 286 285 286 288 290 289 289 288 286 286 285 284
259 264 266 266 268 271 270 271 272 271 274 280 284 286 289 290 295 298 299 302 304 302 298 301 302 301 298 296 294 291 289 287 286 287 289 290 289 288 288 286 285 284 283
257 260 260 262 265 268 271 274 273 274 275 277 281 282 282 281 283 288 290 295 298 299 298 297 299 299 297 297 294 291 289 288 289 289 290 290 290 288 287 285 283 283 282
257 253 254 258 261 265 269 272 273 273 276 278 279 280 280 279 280 283 285 288 294 295 298 297 295 296 295 294 292 289 287 288 289 288 289 290 290 289 288 285 283 282 282
261 254 253 255 258 261 268 270 273 274 274 274 276 276 277 278 280 281 282 286 292 293 294 297 296 293 292 292 291 290 290 289 289 288 288 289 289 288 287 287 286 284 283
264 258 255 257 260 263 265 268 271 273 273 277 279 276 277 277 278 280 281 285 287 290 292 291 292 293 294 295 294 293 293 291 290 290 289 290 290 290 289 289 288 286 285
261 259 256 259 262 263 264 268 272 272 273 276 278 280 278 278 276 279 282 285 286 289 291 291 291 291 294 293 292 293 291 292 288 287 288 288 288 288 287 287 287 287 286
260 260 258 259 261 263 264 268 271 269 270 274 278 281 279 280 278 280 283 283 283 285 288 290 290 291 293 292 291 291 290 290 289 287 286 286 285 285 286 286 285 285 285
260 259 258 259 263 266 270 272 271 272 274 276 279 283 281 279 278 280 282 282 284 285 287 289 289 292 293 293 291 290 288 288 288 286 284 283 283 284 284 284 284 284 283
258 259 263 266 268 270 271 271 271 272 274 276 279 281 281 278 279 280 281 284 287 288 289 291 291 293 293 291 292 291 288 288 288 286 283 282 281 281 282 282 282 282 282
260 262 263 265 267 269 270 268 269 272 274 276 278 279 281 281 280 281 282 284 288 290 290 291 291 292 293 291 290 290 289 288 288 287 285 282 281 280 280 282 282 283 282
259 260 260 262 265 269 269 267 267 271 273 275 278 279 280 281 283 283 282 284 289 291 290 291 292 293 293 293 291 289 291 293 291 288 286 285 283 281 281 281 282 281 282
256 256 258 261 265 268 268 267 267 270 271 274 278 278 280 281 284 284 283 285 288 290 290 290 293 294 294 294 294 294 293 293 294 292 288 286 285 282 282 282 282 283 283
254 253 256 259 262 265 267 269 269 270 272 274 275 277 281 281 284 284 283 285 288 288 289 290 292 292 293 294 294 296 295 294 294 294 293 290 287 284 282 281 281 282 283
254 253 256 258 261 265 268 270 270 270 271 273 275 277 280 282 283 283 285 287 287 287 287 289 290 291 292 293 293 294 295 295 295 295 294 293 291 287 285 284 284 284 284
254 253 255 258 260 264 266 267 269 270 269 273 277 279 282 284 283 284 286 287 289 289 289 290 290 291 292 291 291 292 292 293 294 294 293 294 294 291 288 286 285 285 286
256 255 256 258 261 263 266 267 267 268 269 273 277 278 281 282 282 284 286 288 290 291 291 291 292 293 292 292 291 292 292 293 294 295 295 295 295 293 289 288 288 287 287
254 256 257 258 260 261 263 265 267 267 269 272 275 277 279 281 281 283 286 288 290 292 293 292 292 292 291 290 290 290 291 292 293 295 295 295 295 293 291 290 290 290 291
253 255 257 258 259 260 261 263 265 267 269 272 274 275 278 280 280 281 285 288 290 292 295 293 291 292 291 291 292 291 292 293 294 296 295 294 293 293 293 291 290 290 291
253 255 257 258 258 259 261 263 265 266 269 270 272 273 275 277 278 280 282 286 290 292 294 294 292 292 293 292 291 291 292 294 295 295 295 293 293 292 292 291 291 291 291
254 255 255 257 258 259 262 263 264 265 267 268 271 273 275 276 277 279 282 285 289 292 293 293 293 293 294 293 291 290 291 293 294 294 294 295 295 295 293 291 290 290 290